FW7887 Weather Reports


time (UTC)temp
C
wind
direction
speed
KPH
gust
KPH
rain 1hr
cm
rain 24hr
cm
rain mn
cm
humidity
%
barometer
mb
20260507041040 17 91 0.0 0.0 0.00 0.00 0.00 68 1016.1
20260507040537 17 96 0.0 0.0 0.00 0.00 0.00 68 1016.3
20260507040033 17 92 0.0 0.0 0.00 0.00 0.00 68 1015.9
20260507035529 17 90 0.0 0.0 0.00 0.00 0.00 67 1016.1
20260507035026 17 89 0.0 0.0 0.00 0.00 0.00 67 1015.9
20260507034522 17 101 0.0 0.0 0.00 0.00 0.00 67 1015.8
20260507034020 17 84 0.0 0.0 0.00 0.00 0.00 66 1016.1
20260507033518 17 94 0.0 0.0 0.00 0.00 0.00 66 1016.1
20260507033015 17 90 0.0 0.0 0.00 0.00 0.00 66 1015.8
20260507032512 18 97 0.0 0.0 0.00 0.00 0.00 65 1015.6
20260507032008 18 92 1.6 3.2 0.00 0.00 0.00 65 1015.6
20260507031504 18 126 0.0 1.6 0.00 0.00 0.00 65 1015.6
20260507031002 18 137 3.2 3.2 0.00 0.00 0.00 64 1015.5
20260507030459 18 92 0.0 1.6 0.00 0.00 0.00 64 1015.5
20260507025956 18 91 0.0 0.0 0.00 0.00 0.00 63 1015.5
20260507025453 18 91 0.0 0.0 0.00 0.00 0.00 63 1015.5
20260507024951 19 92 0.0 0.0 0.00 0.00 0.00 63 1015.3
20260507024448 19 94 1.6 1.6 0.00 0.00 0.00 62 1015.4
20260507023944 19 97 0.0 0.0 0.00 0.00 0.00 62 1015.2
20260507023441 20 92 0.0 0.0 0.00 0.00 0.00 61 1015.0
20260507022938 20 92 0.0 0.0 0.00 0.00 0.00 60 1015.0
20260507022435 20 101 0.0 1.6 0.00 0.00 0.00 59 1014.8
20260507021930 21 39 3.2 4.8 0.00 0.00 0.00 57 1014.9
20260507021426 21 91 0.0 1.6 0.00 0.00 0.00 56 1014.8
20260507020924 21 92 0.0 0.0 0.00 0.00 0.00 57 1015.0
20260507020420 22 83 1.6 3.2 0.00 0.00 0.00 55 1014.8
20260507015917 22 86 1.6 1.6 0.00 0.00 0.00 55 1014.6
20260507015416 22 12 4.8 4.8 0.00 0.00 0.00 55 1014.7
20260507014912 21 38 6.4 9.7 0.00 0.00 0.00 55 1014.7
20260507014409 22 330 4.8 4.8 0.00 0.00 0.00 54 1014.6
20260507013905 22 101 1.6 3.2 0.00 0.00 0.00 54 1014.6
20260507013402 22 331 4.8 4.8 0.00 0.00 0.00 53 1014.5
20260507012900 22 25 1.6 3.2 0.00 0.00 0.00 53 1014.9
20260507012355 23 74 4.8 4.8 0.00 0.00 0.00 53 1014.5
20260507011853 22 98 1.6 1.6 0.00 0.00 0.00 54 1014.7
20260507011349 23 241 6.4 9.7 0.00 0.00 0.00 54 1014.6
20260507010843 24 137 3.2 3.2 0.00 0.00 0.00 53 1014.5
20260507010339 23 85 3.2 3.2 0.00 0.00 0.00 52 1014.2
20260507005837 23 94 3.2 3.2 0.00 0.00 0.00 52 1014.6
20260507005333 23 52 3.2 3.2 0.00 0.00 0.00 53 1014.5
20260507004830 23 90 1.6 1.6 0.00 0.00 0.00 52 1014.8
20260507004327 23 90 3.2 8.0 0.00 0.00 0.00 52 1014.7
20260507003824 23 38 4.8 8.0 0.00 0.00 0.00 51 1014.5
20260507003320 24 76 3.2 8.0 0.00 0.00 0.00 51 1014.4
20260507002815 25 112 4.8 4.8 0.00 0.00 0.00 50 1014.6
20260507002311 24 298 3.2 3.2 0.00 0.00 0.00 51 1014.4
20260507001809 24 124 1.6 1.6 0.00 0.00 0.00 51 1014.4
20260507001306 24 88 3.2 3.2 0.00 0.00 0.00 51 1014.1
20260507000802 25 59 3.2 3.2 0.00 0.00 0.00 50 1014.1
20260507000259 25 18 3.2 3.2 0.00 0.00 0.00 48 1014.3
20260506235755 25 38 1.6 3.2 0.00 0.00 0.00 49 1014.3
20260506235250 25 302 4.8 8.0 0.00 0.00 0.00 48 1014.3
20260506234748 25 74 3.2 4.8 0.00 0.00 0.00 49 1014.2
20260506234245 25 1 4.8 9.7 0.00 0.00 0.00 48 1014.3
20260506233742 25 81 3.2 4.8 0.00 0.00 0.00 49 1014.2
20260506233239 26 124 3.2 4.8 0.00 0.00 0.00 46 1014.5
20260506232735 26 88 0.0 1.6 0.00 0.00 0.00 47 1014.3
20260506232230 26 111 1.6 3.2 0.00 0.00 0.00 46 1014.3
20260506231728 26 80 1.6 1.6 0.00 0.00 0.00 46 1014.3
20260506231226 26 88 1.6 3.2 0.00 0.00 0.00 47 1014.5
20260506230722 26 139 0.0 0.0 0.00 0.00 0.00 47 1014.3
20260506230219 26 73 1.6 1.6 0.00 0.00 0.00 47 1014.4
20260506225715 26 84 1.6 1.6 0.00 0.00 0.00 47 1014.6
20260506225212 26 158 3.2 3.2 0.00 0.00 0.00 45 1014.5
20260506224709 26 87 0.0 1.6 0.00 0.00 0.00 48 1014.5
20260506224206 26 97 1.6 1.6 0.00 0.00 0.00 47 1014.6
20260506223702 26 83 3.2 4.8 0.00 0.00 0.00 47 1014.7
20260506223158 26 86 0.0 1.6 0.00 0.00 0.00 48 1014.6
20260506222656 26 208 4.8 8.0 0.00 0.00 0.00 46 1015.0
20260506222151 26 77 3.2 3.2 0.00 0.00 0.00 46 1014.6
20260506221649 26 94 3.2 3.2 0.00 0.00 0.00 47 1014.6
20260506221147 26 176 0.0 1.6 0.00 0.00 0.00 47 1015.0
20260506220643 26 99 1.6 3.2 0.00 0.00 0.00 47 1014.8
20260506220138 27 128 3.2 4.8 0.00 0.00 0.00 44 1015.0
20260506215636 26 117 3.2 8.0 0.00 0.00 0.00 44 1014.9
20260506215131 26 92 0.0 0.0 0.00 0.00 0.00 46 1015.1
20260506214628 26 89 1.6 1.6 0.00 0.00 0.00 44 1015.2
20260506214126 26 101 1.6 1.6 0.00 0.00 0.00 47 1015.3
20260506213624 26 115 1.6 3.2 0.00 0.00 0.00 46 1015.4
20260506213120 26 98 1.6 1.6 0.00 0.00 0.00 46 1015.4
20260506212618 26 85 1.6 3.2 0.00 0.00 0.00 46 1015.6
20260506212112 26 87 0.0 0.0 0.00 0.00 0.00 45 1015.5
20260506211608 26 9 1.6 3.2 0.00 0.00 0.00 42 1015.7
20260506211106 26 96 1.6 3.2 0.00 0.00 0.00 42 1015.5
20260506210602 26 86 0.0 1.6 0.00 0.00 0.00 43 1015.6
20260506210059 25 70 3.2 3.2 0.00 0.00 0.00 46 1015.6
20260506205556 25 85 4.8 4.8 0.00 0.00 0.00 44 1015.7
20260506205050 25 89 0.0 0.0 0.00 0.00 0.00 45 1015.7
20260506204549 25 136 3.2 4.8 0.00 0.00 0.00 44 1015.6
20260506204046 25 92 0.0 1.6 0.00 0.00 0.00 47 1015.9
20260506203544 24 86 3.2 3.2 0.00 0.00 0.00 46 1015.8
20260506203040 23 106 0.0 1.6 0.00 0.00 0.00 46 1015.7
20260506202538 24 219 0.0 1.6 0.00 0.00 0.00 45 1016.1
20260506202034 23 79 1.6 1.6 0.00 0.00 0.00 46 1016.2
20260506201532 23 117 1.6 3.2 0.00 0.00 0.00 45 1016.4
20260506201028 23 83 3.2 3.2 0.00 0.00 0.00 47 1016.3
20260506200524 25 163 1.6 3.2 0.00 0.00 0.00 47 1016.4
20260506200021 24 101 3.2 4.8 0.00 0.00 0.00 47 1016.4
20260506195518 25 96 1.6 3.2 0.00 0.00 0.00 47 1016.6
20260506195014 23 116 1.6 3.2 0.00 0.00 0.00 47 1016.4
20260506194512 23 92 1.6 1.6 0.00 0.00 0.00 49 1016.5
20260506194008 23 45 0.0 1.6 0.00 0.00 0.00 50 1016.5
20260506193506 23 97 1.6 1.6 0.00 0.00 0.00 49 1016.6
20260506193003 22 106 1.6 3.2 0.00 0.00 0.00 51 1016.7
20260506192459 21 94 3.2 4.8 0.00 0.00 0.00 50 1016.5
20260506191955 22 90 3.2 4.8 0.00 0.00 0.00 48 1016.7
20260506191452 22 85 3.2 9.7 0.00 0.00 0.00 52 1016.7
20260506190948 22 96 0.0 0.0 0.00 0.00 0.00 53 1016.9
20260506190446 22 87 1.6 1.6 0.00 0.00 0.00 52 1016.9
20260506185942 21 88 0.0 0.0 0.00 0.00 0.00 51 1016.7
20260506185440 22 160 1.6 1.6 0.00 0.00 0.00 50 1017.2
20260506184937 21 84 1.6 1.6 0.00 0.00 0.00 50 1017.3
20260506184433 21 91 0.0 0.0 0.00 0.00 0.00 55 1017.0
20260506183931 21 103 1.6 3.2 0.00 0.00 0.00 54 1017.3
20260506183426 21 122 0.0 1.6 0.00 0.00 0.00 57 1017.3
20260506182923 20 93 0.0 1.6 0.00 0.00 0.00 56 1017.0
20260506182421 20 88 0.0 1.6 0.00 0.00 0.00 54 1017.1
20260506181918 20 96 0.0 0.0 0.00 0.00 0.00 55 1017.1
20260506181416 20 166 3.2 8.0 0.00 0.00 0.00 54 1017.1
20260506180912 20 84 1.6 1.6 0.00 0.00 0.00 55 1017.3
20260506180408 20 92 0.0 1.6 0.00 0.00 0.00 55 1017.6
20260506175906 20 107 0.0 0.0 0.00 0.00 0.00 57 1017.5
20260506175402 20 82 1.6 1.6 0.00 0.00 0.00 56 1017.3
20260506174859 20 86 1.6 1.6 0.00 0.00 0.00 57 1017.4
20260506174357 18 89 0.0 0.0 0.00 0.00 0.00 59 1017.3
20260506173854 19 103 1.6 3.2 0.00 0.00 0.00 57 1017.6
20260506173350 18 130 1.6 4.8 0.00 0.00 0.00 59 1017.6
20260506172847 18 92 0.0 0.0 0.00 0.00 0.00 60 1017.3
20260506172344 18 119 0.0 1.6 0.00 0.00 0.00 60 1017.4
20260506171842 18 89 0.0 0.0 0.00 0.00 0.00 60 1017.4
20260506171338 18 95 0.0 0.0 0.00 0.00 0.00 60 1017.2
20260506170836 17 85 1.6 3.2 0.00 0.00 0.00 62 1017.4
20260506170332 17 93 0.0 1.6 0.00 0.00 0.00 62 1017.4
20260506165831 17 38 1.6 3.2 0.00 0.00 0.00 60 1017.4
20260506165329 17 83 0.0 1.6 0.00 0.00 0.00 62 1017.5
20260506164825 17 126 3.2 3.2 0.00 0.00 0.00 63 1017.5
20260506164322 17 93 0.0 0.0 0.00 0.00 0.00 64 1017.3
20260506163819 17 96 0.0 1.6 0.00 0.00 0.00 66 1017.3
20260506163314 17 100 0.0 1.6 0.00 0.00 0.00 62 1017.5
20260506162809 17 84 0.0 0.0 0.00 0.00 0.00 64 1017.2
20260506162308 16 99 1.6 1.6 0.00 0.00 0.00 65 1017.4
20260506161805 17 94 1.6 1.6 0.00 0.00 0.00 66 1017.5
20260506161302 16 97 0.0 0.0 0.00 0.00 0.00 68 1017.5
20260506160759 16 100 3.2 4.8 0.00 0.00 0.00 68 1017.3
20260506160256 15 88 1.6 3.2 0.00 0.00 0.00 69 1017.4
20260506155755 15 92 0.0 0.0 0.00 0.00 0.00 70 1017.6
20260506155251 15 103 0.0 0.0 0.00 0.00 0.00 70 1017.4
20260506153404 15 106 1.6 1.6 0.00 0.00 0.00 70 1017.6
20260506152901 15 99 0.0 0.0 0.00 0.00 0.00 71 1017.7
20260506152358 15 95 0.0 0.0 0.00 0.00 0.00 70 1017.4
20260506151857 15 95 0.0 0.0 0.00 0.00 0.00 71 1017.3
20260506151353 15 117 1.6 3.2 0.00 0.00 0.00 71 1017.7
20260506150851 15 95 0.0 0.0 0.00 0.00 0.00 71 1017.5
20260506150347 14 89 0.0 0.0 0.00 0.00 0.00 74 1017.4
20260506145844 15 101 0.0 1.6 0.00 0.00 0.00 72 1017.5
20260506145340 13 97 0.0 1.6 0.00 0.00 0.00 75 1017.5
20260506144838 13 99 1.6 1.6 0.00 0.00 0.00 75 1017.5
20260506144334 12 105 0.0 0.0 0.00 0.00 0.00 79 1017.4
20260506143833 11 95 0.0 0.0 0.00 0.00 0.00 83 1017.6
20260506143329 11 101 0.0 1.6 0.00 0.00 0.00 85 1017.4
20260506142827 11 94 0.0 0.0 0.00 0.00 0.00 85 1017.5
20260506142325 10 95 0.0 0.0 0.00 0.00 0.00 86 1017.5
20260506141823 10 92 0.0 0.0 0.00 0.00 0.00 87 1017.5
20260506141321 10 92 0.0 0.0 0.00 0.00 0.00 87 1017.3
20260506140819 10 92 0.0 0.0 0.00 0.00 0.00 88 1017.2
20260506140315 10 86 0.0 0.0 0.00 0.00 0.00 88 1017.3
20260506135812 10 88 0.0 0.0 0.00 0.00 0.00 88 1017.2
20260506135308 10 85 0.0 0.0 0.00 0.00 0.00 88 1017.1
20260506134805 10 82 0.0 0.0 0.00 0.00 0.00 88 1017.3
20260506134302 9 82 0.0 0.0 0.00 0.00 0.00 88 1016.9
20260506133759 9 88 0.0 0.0 0.00 0.00 0.00 88 1017.1
20260506133256 9 86 0.0 0.0 0.00 0.00 0.00 88 1016.9
20260506132752 9 87 0.0 0.0 0.00 0.00 0.00 88 1017.2
20260506132250 9 88 0.0 0.0 0.00 0.00 0.00 88 1016.7
20260506131748 9 88 0.0 0.0 0.00 0.00 0.00 88 1017.1
20260506131243 9 87 0.0 0.0 0.00 0.00 0.00 89 1016.9
20260506130740 9 88 0.0 0.0 0.00 0.00 0.00 88 1017.1
20260506130237 9 83 0.0 0.0 0.00 0.00 0.00 88 1016.9
20260506125735 10 92 0.0 0.0 0.00 0.00 0.00 88 1016.7
20260506125233 10 89 0.0 0.0 0.00 0.00 0.00 88 1016.7
20260506124731 10 97 0.0 0.0 0.00 0.00 0.00 88 1016.7
20260506124228 10 92 0.0 0.0 0.00 0.00 0.00 88 1016.5
20260506123726 10 86 0.0 0.0 0.00 0.00 0.00 88 1016.7
20260506123224 10 90 0.0 0.0 0.00 0.00 0.00 88 1016.4
20260506122721 10 93 0.0 0.0 0.00 0.00 0.00 88 1016.6
20260506122218 9 85 0.0 0.0 0.00 0.00 0.00 88 1016.5
20260506121716 9 86 0.0 0.0 0.00 0.00 0.00 88 1016.4
20260506121212 10 86 0.0 0.0 0.00 0.00 0.00 88 1016.5
20260506120710 10 83 0.0 0.0 0.00 0.00 0.00 88 1016.3
20260506120207 10 81 0.0 0.0 0.00 0.00 0.00 88 1016.1
20260506115706 10 87 0.0 0.0 0.00 0.00 0.00 88 1016.4
20260506115203 10 81 0.0 0.0 0.00 0.00 0.00 88 1016.4
20260506114700 10 85 0.0 0.0 0.00 0.00 0.00 88 1016.3
20260506114158 10 84 0.0 0.0 0.00 0.00 0.00 88 1016.3
20260506113657 9 85 0.0 0.0 0.00 0.00 0.00 88 1016.5
20260506113154 10 89 0.0 0.0 0.00 0.00 0.00 88 1016.4
20260506112649 10 88 0.0 0.0 0.00 0.00 0.00 87 1016.5
20260506112147 10 101 0.0 0.0 0.00 0.00 0.00 87 1016.3
20260506111645 10 86 0.0 0.0 0.00 0.00 0.00 87 1016.3
20260506111142 10 85 0.0 0.0 0.00 0.00 0.00 87 1016.2
20260506110639 10 85 0.0 1.6 0.00 0.00 0.00 86 1016.3
20260506110137 10 87 0.0 0.0 0.00 0.00 0.00 86 1016.4
20260506105633 10 87 0.0 0.0 0.00 0.00 0.00 85 1016.3
20260506105130 10 83 0.0 0.0 0.00 0.00 0.00 86 1016.1
20260506104629 10 88 0.0 0.0 0.00 0.00 0.00 86 1016.3
20260506104126 10 87 1.6 1.6 0.00 0.00 0.00 86 1016.3
20260506103623 10 89 0.0 0.0 0.00 0.00 0.00 86 1016.2
20260506103120 10 85 0.0 1.6 0.00 0.00 0.00 86 1016.3
20260506102618 10 79 0.0 1.6 0.00 0.00 0.00 86 1016.2
20260506102115 10 87 0.0 1.6 0.00 0.00 0.00 86 1016.4
20260506101612 10 88 0.0 0.0 0.00 0.00 0.00 87 1016.4
20260506101108 10 88 0.0 0.0 0.00 0.00 0.00 87 1016.4
20260506100607 10 88 0.0 0.0 0.00 0.00 0.00 87 1016.3
20260506100104 10 90 0.0 0.0 0.00 0.00 0.00 87 1016.4
20260506095603 10 87 0.0 0.0 0.00 0.00 0.00 87 1016.4
20260506095059 10 85 0.0 0.0 0.00 0.00 0.00 87 1016.3
20260506094557 10 90 0.0 0.0 0.00 0.00 0.00 87 1016.5
20260506094055 10 92 0.0 0.0 0.00 0.00 0.00 87 1016.5
20260506093553 10 90 0.0 0.0 0.00 0.00 0.00 87 1016.6
20260506093050 10 87 0.0 0.0 0.00 0.00 0.00 87 1016.6
20260506092548 10 90 0.0 0.0 0.00 0.00 0.00 87 1016.5
20260506092044 10 90 0.0 0.0 0.00 0.00 0.00 86 1016.6
20260506091543 10 91 0.0 0.0 0.00 0.00 0.00 86 1016.6
20260506091039 10 90 0.0 0.0 0.00 0.00 0.00 85 1016.7
20260506090537 10 90 0.0 0.0 0.00 0.00 0.00 85 1016.8
20260506090033 10 89 0.0 0.0 0.00 0.00 0.00 85 1016.7
20260506085530 10 89 0.0 0.0 0.00 0.00 0.00 86 1016.7
20260506085027 10 89 0.0 0.0 0.00 0.00 0.00 86 1016.8
20260506084524 10 84 0.0 0.0 0.00 0.00 0.00 85 1016.7
20260506084020 10 85 0.0 0.0 0.00 0.00 0.00 85 1016.5
20260506083517 10 82 0.0 0.0 0.00 0.00 0.00 85 1016.8
20260506083015 10 91 0.0 0.0 0.00 0.00 0.00 85 1016.8
20260506082511 10 89 0.0 0.0 0.00 0.00 0.00 85 1016.9
20260506082007 10 87 0.0 0.0 0.00 0.00 0.00 85 1017.1
20260506081505 10 85 0.0 0.0 0.00 0.00 0.00 85 1016.9
20260506081003 10 84 0.0 0.0 0.00 0.00 0.00 85 1016.9
20260506080500 10 90 0.0 0.0 0.00 0.00 0.00 84 1016.9
20260506073443 11 91 0.0 0.0 0.00 0.00 0.00 82 1016.9
20260506072940 11 82 0.0 0.0 0.00 0.00 0.00 82 1016.8
20260506072437 11 91 0.0 0.0 0.00 0.00 0.00 83 1016.9
20260506071936 11 87 0.0 0.0 0.00 0.00 0.00 82 1016.9
20260506071433 11 89 0.0 0.0 0.00 0.00 0.00 82 1016.7
20260506070930 11 87 0.0 0.0 0.00 0.00 0.00 82 1016.8
20260506070427 11 85 0.0 0.0 0.00 0.00 0.00 82 1016.6
20260506062404 11 87 0.0 0.0 0.00 0.00 0.00 79 1016.1
20260506061900 11 87 0.0 0.0 0.00 0.00 0.00 79 1015.9
20260506061357 11 87 0.0 0.0 0.00 0.00 0.00 79 1016.2
20260506060855 11 84 0.0 0.0 0.00 0.00 0.00 79 1016.3
20260506060353 11 85 0.0 0.0 0.00 0.00 0.00 79 1016.2
20260506051324 12 91 0.0 0.0 0.00 0.00 0.00 76 1015.8
20260506050823 12 83 0.0 0.0 0.00 0.00 0.00 76 1015.9
20260506050319 12 87 0.0 0.0 0.00 0.00 0.00 76 1015.6
20260506044810 12 79 0.0 1.6 0.00 0.00 0.00 74 1015.5
20260506044307 12 91 0.0 0.0 0.00 0.00 0.00 74 1015.3
20260506043804 12 91 0.0 1.6 0.00 0.00 0.00 74 1015.4
20260506043302 12 84 0.0 0.0 0.00 0.00 0.00 74 1015.3
20260506042801 12 88 0.0 0.0 0.00 0.00 0.00 74 1015.1
20260506042259 12 85 0.0 0.0 0.00 0.00 0.00 74 1014.9
20260506041757 12 90 0.0 0.0 0.00 0.00 0.00 74 1015.0